Flight Track Log - Related Links

Times and Time Zones

All times are in EDT time to prevent confusion due to time zone crossing. See the ASQ5941 flight status page for this flight to view local times or setup timezone preferences in your user account.

Time Position Orientation Groundspeed Altitude Reporting Facility
EDT Latitude Longitude Course Direction KTS MPH feet Rate Location/Type
Fri 05:12:10 PM 42.0167 -87.9500 80° East 177 204 2,900  Level Chicago TRACON
Fri 05:13:11 PM 42.0667 -87.9000 37° Northeast 253 291 4,200 1,091 Climbing Chicago TRACON
Fri 05:14:11 PM 42.1167 -87.8167 51° Northeast 295 339 5,100 1,150 Climbing Chicago TRACON
Fri 05:15:11 PM 42.1333 -87.7167 77° East 290 334 6,500 1,519 Climbing Chicago TRACON
Fri 05:15:30 PM 42.1436 -87.6872 65° Northeast 289 333 7,100 1,852 Climbing Chicago Center
Fri 05:16:00 PM 42.0842 -87.1446 77° East  Level FlightAware Approximate
Fri 05:16:32 PM 42.1694 -87.5817 72° East 294 338 9,000  Level Chicago Center
Fri 05:17:00 PM 42.1008 -86.9936 80° East  Level FlightAware Approximate
Fri 05:17:34 PM 42.1547 -87.4658 100° East 311 358 10,500  Level Chicago Center
Fri 05:18:36 PM 42.1422 -87.3411 98° East 329 379 12,100 1,694 Climbing Chicago Center
Fri 05:19:38 PM 42.1289 -87.2156 98° East 336 387 14,000 1,790 Climbing Chicago Center
Fri 05:20:40 PM 42.1119 -87.0603 98° East 347 399 15,800 1,597 Climbing Chicago Center
Fri 05:21:42 PM 42.1164 -86.9261 87° East 357 411 17,300 1,306 Climbing Chicago Center
Fri 05:22:44 PM 42.1219 -86.7878 87° East 366 421 18,500 1,065 Climbing Chicago Center
Fri 05:23:46 PM 42.1278 -86.6331 87° East 390 449 19,500 919 Climbing Chicago Center
Fri 05:24:48 PM 42.1325 -86.4797 88° East 406 467 20,400 871 Climbing Chicago Center
Fri 05:25:50 PM 42.1378 -86.3233 87° East 416 479 21,300 871 Climbing Chicago Center
Fri 05:26:52 PM 42.1431 -86.1628 87° East 426 490 22,200 968 Climbing Chicago Center
Fri 05:27:54 PM 42.1436 -85.9683 90° East 431 496 23,300 968 Climbing Chicago Center
Fri 05:28:56 PM 42.1417 -85.8203 91° East 432 497 24,200 871 Climbing Chicago Center
Fri 05:29:58 PM 42.1397 -85.6589 91° East 435 501 25,100 871 Climbing Chicago Center
Fri 05:31:00 PM 42.1389 -85.4972 90° East 435 501 26,000 953 Climbing Chicago Center
Fri 05:31:45 PM 42.1383 -85.3497 90° East 431 496 26,800 971 Climbing Cleveland Center
Fri 05:32:45 PM 42.1364 -85.1872 91° East 424 488 27,700 900 Climbing Cleveland Center
Fri 05:33:45 PM 42.1344 -85.0275 91° East 424 488 28,600 650 Climbing Cleveland Center
Fri 05:34:45 PM 42.1303 -84.8619 92° East 424 488 29,000 200 Climbing Cleveland Center
Fri 05:35:45 PM 42.1239 -84.6933 93° East 436 502 29,000 300 Level Cleveland Center
Fri 05:36:45 PM 42.1167 -84.5472 94° East 443 510 29,600 800 Climbing Cleveland Center
Fri 05:37:45 PM 42.1039 -84.3728 96° East 448 516 30,600 1,050 Climbing Cleveland Center
Fri 05:38:45 PM 42.0908 -84.1903 95° East 448 516 31,700 900 Climbing Cleveland Center
Fri 05:39:45 PM 42.0814 -84.0217 94° East 448 516 32,400 650 Climbing Cleveland Center
Fri 05:40:45 PM 42.0717 -83.8561 94° East 448 516 33,000 300 Climbing Cleveland Center
Fri 05:41:45 PM 42.0614 -83.6989 95° East 453 521 33,000  Level Cleveland Center
Fri 05:42:45 PM 42.0494 -83.5222 95° East 464 534 33,000  Level Cleveland Center
Fri 05:43:45 PM 42.0394 -83.3400 94° East 479 551 33,000  Level Cleveland Center
Fri 05:44:45 PM 42.0247 -83.1575 96° East 489 563 33,000  Level Cleveland Center
Fri 05:45:45 PM 42.0142 -82.9783 94° East 489 563 33,000  Level Cleveland Center
Fri 05:46:45 PM 41.9989 -82.7989 96° East 484 557 33,000  Level Cleveland Center
Fri 05:47:45 PM 41.9900 -82.6169 94° East 479 551 33,000  Level Cleveland Center
Fri 05:48:45 PM 41.9761 -82.4433 96° East 479 551 33,000  Level Cleveland Center
Fri 05:49:45 PM 41.9619 -82.2781 97° East 468 539 33,000  Level Cleveland Center
Fri 05:50:45 PM 41.9517 -82.1158 95° East 421 484 33,000  Level Cleveland Center
Fri 05:51:45 PM 41.9431 -81.9900 95° East 389 448 33,000  Level Cleveland Center
Fri 05:52:45 PM 41.9300 -81.8558 97° East 364 419 33,000  Level Cleveland Center
Fri 05:53:45 PM 41.9211 -81.7189 95° East 364 419 33,000  Level Cleveland Center
Fri 05:54:45 PM 41.9097 -81.5764 96° East 372 428 33,000  Level Cleveland Center
Fri 05:55:45 PM 41.8964 -81.4311 97° East 388 447 33,000  Level Cleveland Center
Fri 05:56:45 PM 41.8850 -81.2719 95° East 388 447 33,000  Level Cleveland Center
Fri 05:57:45 PM 41.8711 -81.1353 98° East 382 440 33,000  Level Cleveland Center
Fri 05:58:45 PM 41.8611 -81.0014 96° East 371 427 33,000  Level Cleveland Center
Fri 05:59:45 PM 41.8492 -80.8647 97° East 371 427 33,000  Level Cleveland Center
Fri 06:00:45 PM 41.8347 -80.7197 98° East 377 434 33,000  Level Cleveland Center
Fri 06:01:45 PM 41.8225 -80.5719 96° East 394 453 33,000  Level Cleveland Center
Fri 06:02:45 PM 41.8078 -80.4272 98° East 394 453 33,000  Level Cleveland Center
Fri 06:03:45 PM 41.7969 -80.2964 96° East 394 453 33,000  Level Cleveland Center
Fri 06:04:45 PM 41.7842 -80.1628 97° East 374 430 33,000  Level Cleveland Center
Fri 06:05:45 PM 41.7711 -80.0319 98° East 361 415 33,000  Level Cleveland Center
Fri 06:06:45 PM 41.7600 -79.8983 96° East 355 409 33,000  Level Cleveland Center
Fri 06:07:45 PM 41.7444 -79.7622 99° East 360 414 33,000  Level Cleveland Center
Fri 06:08:45 PM 41.7308 -79.6067 97° East 375 432 33,000  Level Cleveland Center
Fri 06:09:45 PM 41.7169 -79.4564 97° East 386 444 33,000 -550 Level Cleveland Center
Fri 06:10:45 PM 41.7006 -79.3067 98° East 393 452 31,900 -1,250 Descending Cleveland Center
Fri 06:11:45 PM 41.6886 -79.1678 97° East 408 470 30,500 -1,550 Descending Cleveland Center
Fri 06:12:45 PM 41.6719 -79.0153 98° East 413 475 28,800 -1,850 Descending Cleveland Center
Fri 06:13:45 PM 41.6531 -78.8547 99° East 419 482 26,800 -1,800 Descending Cleveland Center
Fri 06:14:45 PM 41.6381 -78.6939 97° East 433 498 25,200 -1,600 Descending Cleveland Center
Fri 06:15:45 PM 41.6556 -78.5044 83° East 455 524 23,600 -1,100 Descending Cleveland Center
Fri 06:16:45 PM 41.7025 -78.3331 70° East 470 541 23,000 -300 Descending Cleveland Center
Fri 06:17:45 PM 41.7489 -78.1617 70° East 475 547 23,000  Level Cleveland Center
Fri 06:18:45 PM 41.7933 -77.9931 70° East 482 555 23,000  Level Cleveland Center
Fri 06:19:12 PM 41.8125 -77.9206 70° East 483 556 23,000  Level New York Center
Fri 06:20:10 PM 41.8767 -77.7853 57° Northeast 489 563 23,000 -51 Level New York Center
Fri 06:21:10 PM 41.9381 -77.6272 62° Northeast 484 557 22,900 -992 Descending New York Center
Fri 06:22:11 PM 41.9911 -77.4625 67° East 479 551 21,000 -1,869 Descending New York Center
Fri 06:23:12 PM 42.0253 -77.2983 74° East 460 529 19,100 -2,115 Descending New York Center
Fri 06:24:13 PM 42.0381 -77.1347 84° East 450 518 16,700 -2,186 Descending New York Center
Fri 06:25:10 PM 42.0528 -76.9769 83° East 437 503 14,800 -1,983 Descending New York Center
Fri 06:26:11 PM 42.0558 -76.8347 88° East 410 472 12,800 -1,983 Descending New York Center
Fri 06:27:11 PM 42.0486 -76.6889 94° East 369 425 10,800 -1,736 Descending New York Center
Fri 06:28:12 PM 42.0547 -76.5636 86° East 347 399 9,300 -908 Descending New York Center
Fri 06:29:10 PM 42.0750 -76.4453 77° East 329 379 9,000 -203 Descending New York Center
Fri 06:30:10 PM 42.0283 -76.3800 134° Southeast 269 310 8,900 -50 Descending New York Center
Fri 06:31:10 PM 41.9756 -76.3475 155° Southeast 220 253 8,900  Level New York Center
Fri 06:32:11 PM 41.9225 -76.3236 161° South 215 247 8,900  Level New York Center
Fri 06:33:11 PM 41.8578 -76.2875 157° South 216 249 8,900  Level New York Center
Fri 06:34:12 PM 41.7981 -76.2714 169° South 223 257 8,900 50 Level New York Center
Fri 06:35:11 PM 41.7414 -76.2333 153° Southeast 223 257 9,000 50 Climbing New York Center
Fri 06:36:12 PM 41.6981 -76.1825 139° Southeast 233 268 9,000  Level New York Center
Fri 06:37:12 PM 41.6472 -76.1092 133° Southeast 248 285 9,000 -814 Level New York Center
Fri 06:38:10 PM 41.6097 -76.0172 119° Southeast 256 295 7,400 -1,525 Descending New York Center
Fri 06:39:10 PM 41.6017 -75.9142 96° East 277 319 6,000 -1,366 Descending New York Center
Fri 06:40:13 PM 41.5956 -75.8136 95° East 277 319 4,600 -992 Descending New York Center
Fri 06:41:11 PM 41.5886 -75.7328 97° East 256 295 4,000 -403 Descending New York Center
Fri 06:42:12 PM 41.5628 -75.6533 113° Southeast 224 258 3,800 -298 Descending New York Center
Fri 06:43:12 PM 41.5336 -75.6011 127° Southeast 200 230 3,400 -153 Descending New York Center
Fri 06:44:10 PM 41.4817 -75.5975 177° South 173 199 3,500 103 Climbing New York Center

Login

Don't have an account? Register now (free) for customized features, flight alerts, and more!